Miscellaneous Local Product
Issued by NWS Hastings, NE

Home | Current Version | Previous Version | Graphics & Text | Print | Product List | Glossary On
Versions: 1 2 3 4 5 6 7 8 9 10 11 12 13 14 15 16 17 18 19 20 21 22 23 24 25 26 27 28 29 30 31 32 33 34 35 36 37 38 39 40 41 42 43 44 45 46 47 48 49 50
000
AXUS43 KGID 272202
MISGRI

GID CWA HOURLY WEATHER ROUNDUP
NATIONAL WEATHER SERVICE HASTINGS NE
500 PM CDT MON JUL 27 2015

NOTE: "FAIR" INDICATES FEW OR NO CLOUDS BELOW 12,000 FEET WITH NO
SIGNIFICANT WEATHER AND/OR OBSTRUCTIONS TO VISIBILITY.

...SOUTH CENTRAL NEBRASKA...

CITY           SKY/WX    TMP DP  RH WIND       PRES   REMARKS
GRAND ISLAND   FAIR      88  70  55 SE16G25   29.83F HX  93
HASTINGS       FAIR      90  73  57 S15G23    29.82F HX  98
KEARNEY        FAIR      90  72  55 S20       29.81F HX  96
ORD            MOSUNNY   90  70  51 S20G28    29.78F HX  95
YORK           FAIR      88  75  66 S16G23    29.84F HX  97
AURORA         FAIR      89  70  54 SE15G22   29.83F HX  94
LEXINGTON      MOSUNNY   92  72  51 S15G24    29.79F HX 100
HOLDREGE       FAIR      90  70  52 SE15      29.82F HX  95
HEBRON         FAIR      88  71  56 S13       29.84F HX  94

...NEBRASKA PANHANDLE...

CITY           SKY/WX    TMP DP  RH WIND       PRES   REMARKS
CHADRON        SUNNY     95  62  33 S25G32    29.66F HX  96
ALLIANCE       SUNNY     90  65  43 SE22      29.76F HX  92
SCOTTSBLUFF    SUNNY     92  59  33 SE14G25   29.73F HX  91
SIDNEY         PTSUNNY   95  57  27 S15G22    29.79F HX  94

...WESTERN AND NORTH CENTRAL NEBRASKA...

CITY           SKY/WX    TMP DP  RH WIND       PRES   REMARKS
VALENTINE      MOSUNNY   93  65  39 S21G33    29.74F HX  95
AINSWORTH      PTSUNNY   92  67  43 S18G25    29.76F HX  95
ONEILL         SUNNY     90  67  46 S17G25    29.79F HX  93
BROKEN BOW     MOSUNNY   88  71  57 S18G29    29.79F HX  94
IMPERIAL       PTSUNNY   92  67  43 S20G28    29.77F HX  95
NORTH PLATTE   SUNNY     90  69  50 S18G31    29.76F HX  94
MCCOOK         MOSUNNY   94  69  44 S23G32    29.77F HX  99

...EASTERN NEBRASKA...

CITY           SKY/WX    TMP DP  RH WIND       PRES   REMARKS
NORFOLK        FAIR      89  68  49 S21G26    29.81F HX  93
SO SIOUX CITY  FAIR      86  75  69 SE14      29.82F HX  95
TEKAMAH        FAIR      89  77  67 SE16      29.83F HX 101
COLUMBUS       FAIR      88  70  55 S10G22    29.82F HX  92
ALBION         FAIR      87  68  53 SE17G23   29.83F HX  90
OMAHA EPPLEY   PTSUNNY   90  73  57 SE16      29.84F HX  98
OFFUTT AFB     FAIR      89  74  61 SE12      29.84F HX  98
MILLARD        FAIR      89  75  62 SE10G16   29.84F HX  99
LINCOLN        FAIR      91  74  57 S14       29.84F HX 100
NEBRASKA CITY  FAIR      87  73  64 S9        29.86F HX  94
BEATRICE       FAIR      87  75  67 SE8       29.85F HX  97
FALLS CITY     FAIR      89  77  67 S9        29.85F HX 101

...NORTHERN KANSAS...

CITY           SKY/WX    TMP DP  RH WIND       PRES   REMARKS
GOODLAND       MOSUNNY   91  67  44 S21       29.82F HX  94
HILL CITY      FAIR      96  70  42 S21G30    29.79  HX 102
NORTON         PTCLDY    93  64  38 SE20      29.78F HX  95
PHILLIPSBURG   MOSUNNY   97  72  44 SE16G23   29.79F HX 105
SMITH CENTER   SUNNY     93  68  43 S16G23    29.81F HX  97
HAYS           FAIR      95  68  41 S24G31    29.81F HX  99
RUSSELL        FAIR      94  68  42 S22       29.80F HX  98
CONCORDIA      FAIR      92  71  50 S15       29.82F HX  98
SALINA         FAIR      97  69  40 S17G26    29.82F HX 103
TOPEKA         FAIR      95  73  48 S17       29.85F HX 104



USA.gov is the U.S. government's official web portal to all federal, state and local government web resources and services.